Date,TemperatureHighF,TemperatureAvgF,TemperatureLowF,DewpointHighF,DewpointAvgF,DewpointLowF,HumidityHigh,HumidityAvg,HumidityLow,PressureMaxIn,PressureMinIn,WindSpeedMaxMPH,WindSpeedAvgMPH,GustSpeedMaxMPH,PrecipitationSumIn
2013-5-1,81,66,58,58,55,53,87,68,39,0.00,40.00,10,4,14,0.00
2013-5-2,79,66,58,56,50,45,90,59,39,0.00,40.00,10,4,15,0.00
2013-5-3,78,67,60,55,48,40,83,52,26,0.00,40.00,14,7,21,0.00
2013-5-4,69,63,58,50,45,39,63,53,37,0.00,40.00,14,7,20,0.00
2013-5-5,69,61,56,51,46,42,63,58,40,0.00,40.00,12,6,17,0.00
2013-5-6,66,60,56,51,45,38,68,58,45,0.00,40.00,9,5,15,0.00
2013-5-7,69,62,56,56,54,46,91,74,61,0.00,40.00,9,3,14,0.00
2013-5-8,74,64,59,58,54,51,83,71,53,0.00,40.00,10,3,12,0.00
2013-5-9,80,67,54,56,52,42,94,61,34,0.00,40.00,7,2,11,0.00
2013-5-10,75,64,53,63,55,-100,94,77,51,0.00,40.00,19,6,24,2.20
2013-5-11,59,51,45,48,45,35,92,78,62,0.00,40.00,23,8,32,0.00
2013-5-12,51,44,38,37,32,-100,88,64,45,0.00,40.00,22,10,30,0.00
2013-5-13,55,45,35,32,28,24,79,53,32,0.00,40.00,13,5,17,0.00
2013-5-14,77,60,44,55,40,28,66,49,36,0.00,40.00,12,6,22,0.00
2013-5-15,85,74,67,60,56,50,74,55,32,0.00,40.00,21,7,32,1.10
2013-5-16,84,66,55,58,31,-100,84,51,28,0.00,40.00,7,2,16,0.00
2013-5-17,66,60,57,54,45,-100,77,66,56,0.00,40.00,12,5,19,0.00
2013-5-18,69,62,54,55,51,45,87,67,54,0.00,40.00,9,4,20,0.00
2013-5-19,83,70,57,65,60,49,92,71,54,0.00,40.00,8,3,14,0.00
2013-5-20,90,79,66,70,65,61,93,65,40,0.00,40.00,11,4,21,0.00
2013-5-21,90,80,72,68,62,56,83,57,35,0.00,40.00,12,5,28,0.00
2013-5-22,84,75,67,68,62,57,84,65,43,0.00,40.00,12,4,24,0.55
2013-5-23,73,60,47,61,55,40,95,82,59,0.00,40.00,22,9,34,7.79
2013-5-24,56,49,45,40,37,34,81,62,49,0.00,40.00,24,12,34,0.00
2013-5-25,64,54,41,45,38,33,95,59,34,0.00,40.00,7,2,12,0.00
2013-5-26,68,59,45,42,37,34,78,45,29,0.00,40.00,6,2,11,0.00
2013-5-27,58,56,52,54,46,36,94,70,43,0.00,40.00,10,4,17,15.14
2013-5-28,84,70,56,69,62,53,94,77,53,0.00,40.00,11,4,22,7.28
2013-5-29,88,79,71,66,62,59,72,57,42,0.00,40.00,13,5,24,0.00
2013-5-30,91,80,69,67,63,60,81,58,42,0.00,40.00,10,4,21,0.00
2013-5-31,88,76,69,70,66,61,92,70,49,0.00,40.00,10,4,25,4.52